| time (UTC) | temp F | wind direction | speed knots | gust knots | rain 1hr in | rain 24hr in | rain mn in | humidity % | barometer mb |
| 20260508024524 | 48 | 28 | 0.0 | 0.0 | 0.00 | 0.06 | 0.06 | 58 | 1011.0 |
| 20260508023019 | 48 | 28 | 0.0 | 0.0 | 0.00 | 0.06 | 0.06 | 58 | 1011.0 |
| 20260508021520 | 48 | 28 | 0.0 | 0.0 | 0.00 | 0.06 | 0.06 | 58 | 1011.0 |
| 20260508020019 | 48 | 29 | 0.0 | 0.0 | 0.00 | 0.06 | 0.06 | 58 | 1010.8 |
| 20260508014519 | 48 | 53 | 0.0 | 0.9 | 0.00 | 0.06 | 0.06 | 58 | 1010.8 |
| 20260508013018 | 48 | 53 | 0.0 | 0.0 | 0.00 | 0.06 | 0.06 | 58 | 1010.7 |
| 20260508011518 | 49 | 53 | 0.0 | 0.0 | 0.00 | 0.06 | 0.06 | 57 | 1010.7 |
| 20260508010027 | 49 | 53 | 0.0 | 0.9 | 0.00 | 0.06 | 0.06 | 56 | 1010.6 |
| 20260508004524 | 50 | 52 | 0.0 | 0.9 | 0.00 | 0.11 | 0.06 | 56 | 1010.5 |
| 20260508003017 | 50 | 39 | 0.0 | 0.9 | 0.00 | 0.11 | 0.06 | 54 | 1010.4 |
| 20260508001516 | 51 | 36 | 0.0 | 0.9 | 0.00 | 0.11 | 0.06 | 53 | 1010.3 |
| 20260508000016 | 52 | 301 | 0.0 | 1.7 | 0.00 | 0.11 | 0.06 | 52 | 1010.1 |
| 20260507234516 | 53 | 10 | 0.0 | 1.7 | 0.00 | 0.11 | 0.06 | 50 | 1009.9 |
| 20260507233114 | 54 | 45 | 0.9 | 6.1 | 0.00 | 0.11 | 0.06 | 48 | 1009.9 |
| 20260507231513 | 55 | 43 | 0.9 | 4.3 | 0.00 | 0.11 | 0.06 | 47 | 1009.7 |
| 20260507230021 | 55 | 36 | 0.0 | 3.5 | 0.00 | 0.11 | 0.06 | 48 | 1009.7 |
| 20260507224516 | 55 | 27 | 0.9 | 3.5 | 0.00 | 0.11 | 0.06 | 48 | 1009.7 |
| 20260507223011 | 55 | 53 | 0.0 | 4.3 | 0.00 | 0.11 | 0.06 | 47 | 1009.5 |
| 20260507221511 | 55 | 41 | 1.7 | 6.1 | 0.00 | 0.11 | 0.06 | 47 | 1009.7 |
| 20260507220010 | 56 | 37 | 2.6 | 8.7 | 0.00 | 0.11 | 0.06 | 46 | 1009.7 |
| 20260507214515 | 57 | 316 | 0.9 | 6.1 | 0.00 | 0.11 | 0.06 | 46 | 1009.7 |
| 20260507213008 | 55 | 33 | 1.7 | 11.3 | 0.00 | 0.11 | 0.06 | 45 | 1009.6 |
| 20260507211508 | 55 | 30 | 3.5 | 10.4 | 0.00 | 0.11 | 0.06 | 44 | 1009.4 |
| 20260507210007 | 56 | 316 | 4.3 | 12.2 | 0.00 | 0.11 | 0.06 | 43 | 1009.6 |
| 20260507204505 | 58 | 347 | 2.6 | 10.4 | 0.00 | 0.11 | 0.06 | 41 | 1009.3 |
| 20260507203003 | 58 | 301 | 2.6 | 11.3 | 0.00 | 0.11 | 0.06 | 44 | 1009.4 |
| 20260507201502 | 58 | 322 | 3.5 | 7.8 | 0.00 | 0.11 | 0.06 | 43 | 1009.3 |
| 20260507194600 | 57 | 307 | 3.5 | 13.0 | 0.00 | 0.13 | 0.06 | 43 | 1009.4 |
| 20260507193058 | 56 | 14 | 3.5 | 8.7 | 0.00 | 0.13 | 0.06 | 46 | 1009.4 |
| 20260507191559 | 55 | 16 | 0.9 | 8.7 | 0.00 | 0.13 | 0.06 | 46 | 1009.9 |
| 20260507190057 | 56 | 240 | 2.6 | 7.0 | 0.00 | 0.13 | 0.06 | 46 | 1009.9 |
| 20260507184555 | 57 | 309 | 2.6 | 8.7 | 0.00 | 0.19 | 0.06 | 46 | 1010.0 |
| 20260507183053 | 56 | 8 | 1.7 | 9.6 | 0.00 | 0.19 | 0.06 | 48 | 1009.9 |
| 20260507181551 | 56 | 311 | 1.7 | 9.6 | 0.00 | 0.19 | 0.06 | 47 | 1010.2 |
| 20260507180057 | 55 | 338 | 2.6 | 8.7 | 0.00 | 0.19 | 0.06 | 48 | 1010.4 |
| 20260507174555 | 55 | 42 | 3.5 | 7.8 | 0.00 | 0.20 | 0.06 | 48 | 1010.7 |
| 20260507173047 | 54 | 52 | 1.7 | 6.1 | 0.00 | 0.20 | 0.06 | 51 | 1010.9 |
| 20260507171558 | 54 | 8 | 2.6 | 8.7 | 0.00 | 0.20 | 0.06 | 50 | 1011.1 |
| 20260507170042 | 54 | 359 | 5.2 | 11.3 | 0.00 | 0.20 | 0.06 | 49 | 1011.2 |
| 20260507164546 | 53 | 295 | 2.6 | 9.6 | 0.00 | 0.25 | 0.06 | 50 | 1011.4 |
| 20260507163043 | 52 | 63 | 2.6 | 12.2 | 0.00 | 0.25 | 0.06 | 51 | 1011.8 |
| 20260507161540 | 53 | 326 | 4.3 | 9.6 | 0.00 | 0.25 | 0.06 | 51 | 1011.8 |
| 20260507160044 | 52 | 24 | 1.7 | 7.0 | 0.00 | 0.25 | 0.06 | 55 | 1012.0 |
| 20260507154534 | 52 | 31 | 0.0 | 6.1 | 0.00 | 0.27 | 0.06 | 52 | 1012.1 |
| 20260507153032 | 52 | 196 | 0.9 | 7.0 | 0.00 | 0.27 | 0.06 | 53 | 1012.2 |
| 20260507151527 | 51 | 340 | 2.6 | 7.8 | 0.00 | 0.27 | 0.06 | 54 | 1012.4 |
| 20260507150029 | 50 | 312 | 1.7 | 6.1 | 0.00 | 0.27 | 0.06 | 60 | 1012.5 |
| 20260507144531 | 49 | 293 | 2.6 | 8.7 | 0.00 | 0.27 | 0.06 | 59 | 1012.5 |
| 20260507143021 | 49 | 20 | 2.6 | 9.6 | 0.00 | 0.27 | 0.06 | 61 | 1012.5 |
| 20260507141521 | 48 | 295 | 4.3 | 8.7 | 0.00 | 0.27 | 0.06 | 63 | 1012.4 |
| 20260507140014 | 48 | 39 | 4.3 | 7.8 | 0.00 | 0.27 | 0.06 | 68 | 1012.7 |
| 20260507134513 | 47 | 342 | 1.7 | 6.1 | 0.00 | 0.27 | 0.06 | 71 | 1012.5 |
| 20260507133012 | 46 | 14 | 4.3 | 7.8 | 0.00 | 0.27 | 0.06 | 73 | 1012.6 |
| 20260507131508 | 46 | 49 | 3.5 | 7.0 | 0.00 | 0.27 | 0.06 | 75 | 1012.4 |
| 20260507130020 | 45 | 326 | 1.7 | 7.8 | 0.00 | 0.27 | 0.06 | 80 | 1012.1 |
| 20260507124506 | 44 | 321 | 3.5 | 7.8 | 0.00 | 0.27 | 0.06 | 80 | 1012.0 |
| 20260507123005 | 44 | 282 | 2.6 | 12.2 | 0.00 | 0.27 | 0.06 | 81 | 1011.9 |
| 20260507121601 | 44 | 333 | 2.6 | 8.7 | 0.00 | 0.27 | 0.06 | 86 | 1012.0 |
| 20260507120058 | 43 | 60 | 2.6 | 8.7 | 0.00 | 0.27 | 0.06 | 88 | 1011.9 |
| 20260507114612 | 43 | 301 | 3.5 | 7.8 | 0.00 | 0.27 | 0.06 | 90 | 1011.8 |
| 20260507113057 | 43 | 18 | 3.5 | 7.0 | 0.00 | 0.27 | 0.06 | 92 | 1011.8 |
| 20260507111553 | 42 | 41 | 0.9 | 5.2 | 0.00 | 0.27 | 0.06 | 94 | 1011.5 |
| 20260507110051 | 42 | 330 | 1.7 | 7.0 | 0.00 | 0.27 | 0.06 | 94 | 1011.3 |
| 20260507104554 | 42 | 308 | 1.7 | 7.0 | 0.00 | 0.27 | 0.06 | 95 | 1011.0 |
| 20260507103047 | 42 | 46 | 2.6 | 5.2 | 0.00 | 0.27 | 0.06 | 95 | 1010.7 |
| 20260507101549 | 42 | 2 | 0.9 | 7.8 | 0.00 | 0.27 | 0.06 | 95 | 1010.7 |
| 20260507100047 | 42 | 37 | 1.7 | 5.2 | 0.00 | 0.27 | 0.06 | 95 | 1010.6 |
| 20260507094545 | 42 | 304 | 2.6 | 0.0 | 0.00 | 0.00 | 0.06 | 95 | 1010.6 |
| 20260507093045 | 42 | 302 | 0.9 | 4.3 | 0.00 | 0.27 | 0.06 | 95 | 1010.4 |
| 20260507091545 | 42 | 15 | 1.7 | 5.2 | 0.00 | 0.27 | 0.06 | 95 | 1010.3 |
| 20260507090041 | 43 | 326 | 1.7 | 7.0 | 0.00 | 0.27 | 0.06 | 95 | 1010.1 |
| 20260507084541 | 43 | 49 | 2.6 | 4.3 | 0.00 | 0.27 | 0.06 | 95 | 1010.3 |
| 20260507083039 | 43 | 23 | 1.7 | 7.8 | 0.00 | 0.27 | 0.06 | 95 | 1010.4 |
| 20260507081537 | 43 | 321 | 1.7 | 7.0 | 0.00 | 0.27 | 0.06 | 95 | 1010.4 |
| 20260507080037 | 43 | 40 | 2.6 | 6.1 | 0.01 | 0.27 | 0.06 | 95 | 1010.3 |
| 20260507074537 | 43 | 337 | 1.7 | 8.7 | 0.03 | 0.27 | 0.06 | 95 | 1010.4 |
| 20260507073036 | 44 | 39 | 2.6 | 8.7 | 0.03 | 0.27 | 0.06 | 95 | 1010.6 |
| 20260507071531 | 44 | 319 | 3.5 | 9.6 | 0.04 | 0.27 | 0.06 | 94 | 1010.6 |
| 20260507070129 | 44 | 322 | 1.7 | 4.3 | 0.04 | 0.27 | 0.06 | 94 | 1010.6 |
| 20260507064526 | 44 | 323 | 2.6 | 5.2 | 0.02 | 0.24 | 0.03 | 93 | 1010.5 |
| 20260507063039 | 44 | 307 | 1.7 | 7.8 | 0.03 | 0.24 | 0.03 | 93 | 1010.4 |
| 20260507061526 | 45 | 338 | 2.6 | 7.0 | 0.02 | 0.23 | 0.02 | 92 | 1010.5 |
| 20260507060035 | 45 | 50 | 3.5 | 8.7 | 0.01 | 0.22 | 0.01 | 92 | 1010.6 |
| 20260507054518 | 46 | 333 | 3.5 | 7.8 | 0.01 | 0.22 | 0.01 | 92 | 1010.2 |
| 20260507053015 | 46 | 23 | 3.5 | 11.3 | 0.00 | 0.21 | 0.00 | 92 | 1009.6 |
| 20260507051514 | 46 | 335 | 1.7 | 7.8 | 0.00 | 0.21 | 0.00 | 92 | 1009.6 |
| 20260507050010 | 46 | 323 | 3.5 | 8.7 | 0.00 | 0.21 | 0.00 | 92 | 1009.7 |
| 20260507044507 | 47 | 13 | 4.3 | 7.8 | 0.00 | 0.21 | 0.00 | 92 | 1009.8 |
| 20260507043006 | 47 | 323 | 2.6 | 8.7 | 0.00 | 0.21 | 0.00 | 92 | 1010.2 |
| 20260507041503 | 47 | 323 | 2.6 | 7.0 | 0.00 | 0.21 | 0.00 | 93 | 1010.0 |
| 20260507040111 | 47 | 319 | 2.6 | 5.2 | 0.00 | 0.21 | 0.00 | 93 | 1009.9 |
| 20260507034609 | 47 | 331 | 1.7 | 6.1 | 0.00 | 0.21 | 0.21 | 93 | 1009.7 |
| 20260507033104 | 47 | 347 | 3.5 | 7.8 | 0.00 | 0.21 | 0.21 | 92 | 1009.8 |
| 20260507031618 | 47 | 297 | 2.6 | 7.0 | 0.00 | 0.21 | 0.21 | 92 | 1009.7 |
| 20260507030056 | 48 | 332 | 2.6 | 7.8 | 0.00 | 0.21 | 0.21 | 92 | 1009.7 |